Regional Weather Roundup
Issued by NWS

Home | Current Version | Previous Version | Text Only | Print | Product List | Glossary Off
Versions: 1 2 3 4 5 6 7 8 9 10 11 12 13 14 15 16 17 18 19 20 21 22 23 24 25 26 27 28 29 30 31 32 33 34 35 36 37 38 39 40 41 42 43 44 45 46 47 48 49 50

000
ASUS45 KBOU 271107
RWRCO

WEATHER ROUNDUP FOR COLORADO
NATIONAL WEATHER SERVICE DENVER/BOULDER CO
500 AM MDT WED AUG 27 2014

NOTE: "FAIR" INDICATES FEW OR NO CLOUDS BELOW 12000 FEET WITH NO
SIGNIFICANT WEATHER AND/OR OBSTRUCTIONS TO VISIBILITY.

COZ001>005-013-030-031-271200-
...NORTHWEST COLORADO...

CITY           SKY/WX    TMP DP  RH WIND       PRES   REMARKS
CRAIG          RAIN      54  53  97 NW3       30.28S FOG
HAYDEN         CLOUDY    52  48  87 NW6       30.29S
MEEKER         CLOUDY    53  51  93 CALM      30.28S
MOUNT WERNER   NOT AVBL
STEAMBOAT SPGS CLOUDY    50  49  96 CALM      30.30S
WALDEN         CLOUDY    50  46  87 CALM      30.33S
$$

COZ006>008-011-271200-
...WEST CENTRAL VALLEYS...

CITY           SKY/WX    TMP DP  RH WIND       PRES   REMARKS
GRAND JUNCTION CLOUDY    57  54  89 CALM      30.21R
MONTROSE       MOCLDY    54  53  97 VRB3      30.29R
EAGLE          CLOUDY    54  54 100 NE3       30.30S
RIFLE          CLOUDY    56  54  93 CALM      30.24F
DELTA          HVY RAIN  57  56  97 CALM      30.25R
NUCLA          MOCLDY    54  52  94 SE3       30.33R FOG
$$

COZ017>023-064>068-271200-
...SOUTHWEST COLORADO...

CITY           SKY/WX    TMP DP  RH WIND       PRES   REMARKS
DURANGO        CLOUDY    51  51 100 W5        30.34R
CORTEZ         CLOUDY    52  52 100 CALM      30.32R FOG
PAGOSA SPRINGS MOCLDY    50  50 100 CALM      30.38S FOG
TELLURIDE      MOCLDY    46  45  93 CALM      30.43R
WOLF CREEK PAS FOG       37  37 100 SW16      30.57R VSB 1/4
$$

COZ009-010-012-014-032>034-037-058>063-271200-
...CENTRAL COLORADO...

CITY           SKY/WX    TMP DP  RH WIND       PRES   REMARKS
ASPEN          CLOUDY    51  48  89 CALM      30.33F
BUENA VISTA    LGT RAIN  51  48  91 CALM      30.34F
COPPER MTN     DRZL/FOG  45  37  76 S16       30.54S VSB 1/4
BERTHOUD PASS  CLOUDY    36  36 100 SE12      30.57F
COTTONWOOD PAS CLOUDY    50  41  71 W3        30.43F
GUNNISON       MOCLDY    50  45  81 CALM      30.37R
KREMMLING      RAIN      52  48  87 W3        30.32S
LEADVILLE      CLOUDY    44  43  96 CALM      30.42S FOG
MONARCH PASS   FOG       39  37  93 SW20      30.64F VSB 1/4
SALIDA         CLOUDY    55  52  92 NW3       30.39F
SUNLIGHT       CLOUDY    43  43 100 CALM      30.49S FOG
WILKERSON PASS NOT AVBL
$$

COZ069>075-271200-
...SAN LUIS VALLEY/SANGRE DE CRISTO MOUNTAINS...

CITY           SKY/WX    TMP DP  RH WIND       PRES   REMARKS
ALAMOSA        CLOUDY    52  50  93 SW3       30.33S
LA VETA PASS   NOT AVBL
SAGUACHE       CLOUDY    52  50  93 CALM      30.36S
$$

COZ035-036-038>040-271200-
...NORTHERN COLORADO FRONT RANGE...

CITY           SKY/WX    TMP DP  RH WIND       PRES   REMARKS
DENVER INTL AP MOCLDY    60  56  86 SW3       30.15F
DMNS CITY PARK   N/A     58  56  94 SW5       30.14S
AURORA         MOCLDY    59  55  89 S2        30.17F
FRONT RANGE AP MOCLDY    61  57  88 CALM      30.16S
ERIE MUNI ARPT MOCLDY    60  55  83 CALM      30.14S
BOULDER MUN AP MOCLDY    61  55  82 CALM      30.14F
CENTENNIAL     MOCLDY    57  54  89 CALM      30.17F
BROOMFIELD     MOCLDY    61  52  72 CALM      30.17S
FORT COLLINS   MOCLDY    57  54  88 N7        30.15F
LONGMONT       MOCLDY    64  56  78 N3        30.15F
$$

COZ041-046-047-076>085-087-088-271200-
...PIKES PEAK/PALMER DIVIDE AND SOUTHERN FOOTHILLS...

CITY           SKY/WX    TMP DP  RH WIND       PRES   REMARKS
COLO. SPRINGS  MOCLDY    56  53  90 CALM      30.22S
A. F. ACADEMY  PTCLDY    52  52  99 N6        30.22F
ELLICOTT       PTCLDY    53  52  96 E8        30.21S
FALCON         PTCLDY    53  52  97 CALM      30.25S
FORT CARSON    PTCLDY    57  53  86 S3        30.19F
LIMON          CLOUDY    58  57  97 SE7       30.18F
MONUMENT HILL  PTCLDY    50  50 100 S6        30.24S
TRINIDAD       PTCLDY    62  55  77 W9        30.18F
$$

COZ042>045-048>051-090-091-271200-
...NORTHEAST COLORADO...

CITY           SKY/WX    TMP DP  RH WIND       PRES   REMARKS
GREELEY ARPT   MOCLDY    59  52  77 NE3       30.13F
AKRON          PTCLDY    62  58  86 S7        30.14F
BURLINGTON     PTCLDY    60  59  96 S6        30.15S
WRAY             N/A    N/A N/A N/A E7        30.13S
STERLING       PTCLDY    63  63 100 SW3       30.10F
HOLYOKE        MOCLDY    63  61  94 SE8       30.12F
FORT MORGAN    PTCLDY    59  57  92 CALM      30.13F
$$

COZ086-089-092>099-271200-
...SOUTHEAST COLORADO...

CITY           SKY/WX    TMP DP  RH WIND       PRES   REMARKS
PUEBLO         PTCLDY    58  54  86 CALM      30.13F
LA JUNTA       PTCLDY    63  62  97 SE6       30.12S
LAMAR          MOCLDY    64  61  90 CALM      30.10R
SPRINGFIELD      N/A     63  63 100 S9        30.16R
$$



USA.gov is the U.S. government's official web portal to all federal, state and local government web resources and services.